sat.trackr.live / text

‹ back to catalog

STARLINK-37115

NORAD 68297 · 2026-057D

PAYLOAD ACTIVE UNKNOWN

§ Identity

Operator
Country
US
Launch date
2026-03-20
Launch site
AFWTR
Launch vehicle
Mass (kg)
RCS (m²)

Purposes: comms

External: N2YO · Heavens-Above · Gunter

§ Orbital elements

Epoch: 2026-09-19T06:47:06.994176Z

Period
93.91 min
Inclination
97.2847°
Eccentricity
0.0001136
Mean motion
15.33446256 rev/d
Perigee alt
464.8 km
Apogee alt
466.3 km
Semi-major
6,843.7 km
B*
6.3048e-4
RAAN
27.6476°
Arg perigee
92.1323°
Mean anomaly
268.0050°
Rev number
2,832

§ Raw data

STARLINK-371151 68297U 26057D   26262.28271984  .00020335  00000+0  63048-3 0  99972 68297  97.2847  27.6476 0001136  92.1323 268.0050 15.33446256 28329

JSON: /api/v1/satellites/68297 · /tle

For live sub-satellite position, see the globe view (requires WebGL).

§ Visibility from observer

Set your observer location to see the next 7 days of passes ≥ 10°. The values pass through the URL so the page stays shareable.

No JS? Fill the form by hand. The geolocation button needs JavaScript.